IRIDIUM 33 DEB, 33776

Orbit data source: Space-Track

IRIDIUM 33 DEB, 33776 is space debris in LEO originally from a launch on Sun, 14 Sep 1997 UTC launched from the Tyuratam Missile And Space Complex (TTMTR). The debris from Iridium 33, an American commercial communications satellite, has been tracked extensively since its accidental collision with the defunct Russian satellite Cosmos 2251 in 2009. This event, occurring at high speed in low Earth orbit (LEO), generated thousands of pieces of space debris, significantly increasing the risk of further collisions. The Iridium 33 debris cloud has impacted space traffic management and orbital debris mitigation strategies, making it a subject of ongoing study in space situational awareness.

Loading next visibility...
Identifier
33776, 1997-051P
Orbit
LEO
Country
Flag of USUS
Related business
Manufacturer
Unknown
Mission
Spacecraft
Bus & Motor
Unknown
Mass
Unknown
Launch date (UTC)
1997-09-14 (28 years ago)
Launch vehicle
Unknown
Launch site
Tyuratam Missile And Space Complex (TTMTR)
Object type
Payload
Rocket body
Debris
Shape & HBR
Unknown shape, 0.6 m
Radar Cross Section
Medium (>0.1 m² and <1 m²)

Expand to show TLE details & history
Last TLE update: 12 hours ago

TLE from 12 hours ago
0 IRIDIUM 33 DEB
1 33776U 97051P   25351.75781194  .00000700  00000-0  22372-3 0  9992
2 33776  86.4037  78.6687 0014952 174.0030 313.2973 14.38243892881542
Epoch: 2025-12-17T18:11Z
TLE epoch observation values (Epoch: 2025-12-17T18:11:14.951Z)
Latitude
52.7753°
Longitude
-105.48667°
Altitude
765.68 km
Speed
7.48 km/s
True Right ascension
16h 55m 47s
True Declination
52° 36' 35"
Sunlit
Object was in daylight at epoch
Visualization orbit readout
Latitude
Unknown
Longitude
Unknown
Altitude
Unknown
Speed
Unknown
Apparent Right ascension
Unknown
Apparent Declination
Unknown
Sunlit
N/A
Visualization observer readout
Local Sidereal Time
05:17:56
Azimuth
Unknown
Elevation
Unknown
Doppler factor
Unknown
Orbital elements
Apogee altitude
771.94 km
Perigee altitude
750.59 km
Semi-major axis
7,139.402 km
Eccentricity
0.0015
Inclination
86.4037°
RAAN
78.6687°
Arg. of periapsis
174.003°
True anomaly
313.17244°
Mean anomaly
313.2973°
Eccentric anomaly
313.23489°
Mean motion
3.59791 °/min
Orbital period
100.06 mins
BSTAR
0.00022372
Loading maneuver chart data...
Computing Atmospheric mass density...

Documentation

Showing up to 5 results
|